Location: Colossi of Memnon
(25.7167°N, 32.6167°E)
Time: 20:10:05
(UTC+00:00)

Cosmos 2315 Rocket - Pass Details

Date: 05 March 2021
Orbit: 967 x 1001 km, 82.9° (Epoch: 20 April)

Event Time Altitude Azimuth Distance (km) Brightness Sun altitude
Rises 02:34:15 0° 195° (SSW) 3,661 6.8 -22.1°
Reaches altitude 10° 02:36:49 10° 200° (SSW) 2,712 6.1 -21.6°
Maximum altitude 02:42:51 54° 277° (W) 1,159 4.0 -20.2°
Drops below altitude 10° 02:48:55 10° 354° (N) 2,709 6.3 -18.8°
Sets 02:51:29 0° 359° (N) 3,657 7.0 -18.3°
